Time,TemperatureF,DewpointF,PressureIn,WindDirection,WindDirectionDegrees,WindSpeedMPH,WindSpeedGustMPH,Humidity,HourlyPrecipIn,Conditions,Clouds,dailyrainin,SoftwareType,DateUTC
2013-07-20 00:01:00,79.3,75.2,30.12,SSW,202,3.4,4.0,87,0.00,,,0.00,Graphweather,2013-07-20 04:01:00,
2013-07-20 00:02:00,79.3,75.2,30.12,SSE,157,4.3,5.6,87,0.00,,,0.00,Graphweather,2013-07-20 04:02:00,
2013-07-20 00:03:00,79.3,75.2,30.12,SSE,157,4.3,4.3,87,0.00,,,0.00,Graphweather,2013-07-20 04:03:00,
2013-07-20 00:04:00,79.3,75.2,30.09,SE,135,2.9,4.5,87,0.00,,,0.00,Graphweather,2013-07-20 04:04:00,
2013-07-20 00:06:00,79.3,75.2,30.09,ESE,112,2.9,4.3,86,0.00,,,0.00,Graphweather,2013-07-20 04:06:00,
2013-07-20 00:11:00,79.2,75.2,30.09,ESE,112,3.1,4.9,88,0.00,,,0.00,Graphweather,2013-07-20 04:11:00,
2013-07-20 00:16:00,79.2,75.2,30.09,South,180,3.8,3.8,88,0.00,,,0.00,Graphweather,2013-07-20 04:16:00,
2013-07-20 00:21:00,79.2,75.2,30.09,NE,45,3.1,4.3,88,0.00,,,0.00,Graphweather,2013-07-20 04:21:00,
2013-07-20 00:26:00,79.2,75.2,30.09,East,90,3.6,4.3,88,0.00,,,0.00,Graphweather,2013-07-20 04:26:00,
2013-07-20 00:31:00,79.2,77.0,30.09,SSE,157,4.3,4.3,89,0.00,,,0.00,Graphweather,2013-07-20 04:31:00,
2013-07-20 00:37:00,79.2,77.0,30.06,ESE,112,2.9,3.4,89,0.00,,,0.00,Graphweather,2013-07-20 04:37:00,
2013-07-20 00:42:00,79.2,75.2,30.06,East,90,3.8,3.8,88,0.00,,,0.00,Graphweather,2013-07-20 04:42:00,
2013-07-20 00:47:00,79.0,75.2,30.06,South,180,3.6,7.2,86,0.00,,,0.00,Graphweather,2013-07-20 04:47:00,
2013-07-20 00:52:00,79.0,75.2,30.06,East,90,4.0,7.6,86,0.00,,,0.00,Graphweather,2013-07-20 04:52:00,
2013-07-20 00:57:00,79.2,75.2,30.06,East,90,3.6,3.6,87,0.00,,,0.00,Graphweather,2013-07-20 04:57:00,
2013-07-20 01:02:00,79.0,75.2,30.06,East,90,3.6,4.0,87,0.00,,,0.00,Graphweather,2013-07-20 05:02:00,
2013-07-20 01:07:00,79.2,75.2,30.06,South,180,4.3,5.4,87,0.00,,,0.00,Graphweather,2013-07-20 05:07:00,
2013-07-20 01:12:00,79.2,75.2,30.06,East,90,3.1,3.4,87,0.00,,,0.00,Graphweather,2013-07-20 05:12:00,
2013-07-20 01:17:00,79.0,75.2,30.06,ESE,112,3.4,3.8,87,0.00,,,0.00,Graphweather,2013-07-20 05:17:00,
2013-07-20 01:22:00,79.0,75.2,30.06,East,90,3.4,5.4,88,0.00,,,0.00,Graphweather,2013-07-20 05:22:00,
2013-07-20 01:27:00,79.2,75.2,30.06,SSE,157,2.5,3.8,88,0.00,,,0.00,Graphweather,2013-07-20 05:27:00,
2013-07-20 01:32:00,79.2,75.2,30.06,East,90,3.8,4.7,87,0.00,,,0.00,Graphweather,2013-07-20 05:32:00,
2013-07-20 01:38:00,79.2,75.2,30.09,East,90,3.6,3.6,87,0.00,,,0.00,Graphweather,2013-07-20 05:38:00,
2013-07-20 01:43:00,79.3,75.2,30.09,ESE,112,3.1,3.1,88,0.00,,,0.00,Graphweather,2013-07-20 05:43:00,
2013-07-20 01:48:00,78.4,75.2,30.09,ENE,67,2.5,3.4,92,0.00,,,0.00,Graphweather,2013-07-20 05:48:00,
2013-07-20 01:53:00,77.9,77.0,30.06,South,180,3.1,3.6,94,0.00,,,0.00,Graphweather,2013-07-20 05:53:00,
2013-07-20 01:58:00,77.4,75.2,30.06,SSE,157,3.6,6.5,94,0.00,,,0.00,Graphweather,2013-07-20 05:58:00,
2013-07-20 02:03:00,77.2,75.2,30.06,SSE,157,3.4,4.7,94,0.00,,,0.00,Graphweather,2013-07-20 06:03:00,
2013-07-20 02:08:00,77.2,75.2,30.06,NNE,22,2.9,3.1,94,0.00,,,0.00,Graphweather,2013-07-20 06:08:00,
2013-07-20 02:13:00,77.2,75.2,30.06,NNE,22,2.7,2.9,94,0.00,,,0.00,Graphweather,2013-07-20 06:13:00,
2013-07-20 02:18:00,77.4,75.2,30.06,East,90,3.8,5.4,94,0.00,,,0.00,Graphweather,2013-07-20 06:18:00,
2013-07-20 02:23:00,77.5,75.2,30.06,East,90,3.6,3.6,94,0.00,,,0.00,Graphweather,2013-07-20 06:23:00,
2013-07-20 02:28:00,77.7,75.2,30.06,East,90,3.1,3.6,94,0.00,,,0.00,Graphweather,2013-07-20 06:28:00,
2013-07-20 02:33:00,77.9,77.0,30.06,East,90,2.5,2.5,94,0.00,,,0.00,Graphweather,2013-07-20 06:33:00,
2013-07-20 02:38:00,77.9,77.0,30.03,East,90,3.1,3.6,95,0.00,,,0.00,Graphweather,2013-07-20 06:38:00,
2013-07-20 02:44:00,77.7,77.0,30.03,South,180,2.7,3.6,95,0.00,,,0.00,Graphweather,2013-07-20 06:44:00,
2013-07-20 02:49:00,77.9,77.0,30.03,SSW,202,4.0,4.0,93,0.00,,,0.00,Graphweather,2013-07-20 06:49:00,
2013-07-20 02:54:00,78.1,77.0,30.03,SSW,202,4.5,4.7,93,0.00,,,0.00,Graphweather,2013-07-20 06:54:00,
2013-07-20 02:59:00,78.3,75.2,30.03,SSW,202,4.5,8.1,91,0.00,,,0.00,Graphweather,2013-07-20 06:59:00,
2013-07-20 03:04:00,78.3,75.2,30.03,SSW,202,4.3,4.3,91,0.00,,,0.00,Graphweather,2013-07-20 07:04:00,
2013-07-20 03:09:00,78.3,75.2,30.03,ESE,112,4.0,5.8,90,0.00,,,0.00,Graphweather,2013-07-20 07:09:00,
2013-07-20 03:14:00,78.3,75.2,30.03,SE,135,4.5,6.0,91,0.00,,,0.00,Graphweather,2013-07-20 07:14:00,
2013-07-20 03:19:00,78.4,75.2,30.03,East,90,3.6,3.6,89,0.00,,,0.00,Graphweather,2013-07-20 07:19:00,
2013-07-20 03:24:00,78.6,75.2,30.03,East,90,4.5,4.5,87,0.00,,,0.00,Graphweather,2013-07-20 07:24:00,
2013-07-20 03:29:00,78.8,75.2,30.03,ESE,112,4.3,4.5,88,0.00,,,0.00,Graphweather,2013-07-20 07:29:00,
2013-07-20 03:34:00,79.0,75.2,30.03,ESE,112,3.6,6.0,88,0.00,,,0.00,Graphweather,2013-07-20 07:34:00,
2013-07-20 03:39:00,79.0,75.2,30.03,SE,135,4.0,6.5,89,0.00,,,0.00,Graphweather,2013-07-20 07:39:00,
2013-07-20 03:44:00,79.0,75.2,30.03,East,90,4.5,6.3,88,0.00,,,0.00,Graphweather,2013-07-20 07:44:00,
2013-07-20 03:50:00,79.0,75.2,30.03,East,90,4.5,5.6,89,0.00,,,0.00,Graphweather,2013-07-20 07:50:00,
2013-07-20 03:55:00,78.8,75.2,30.03,East,90,4.3,4.3,89,0.00,,,0.00,Graphweather,2013-07-20 07:55:00,
2013-07-20 04:00:00,78.8,75.2,30.03,East,90,3.8,5.4,89,0.00,,,0.00,Graphweather,2013-07-20 08:00:00,
2013-07-20 04:05:00,78.8,75.2,30.03,SE,135,4.3,4.3,89,0.00,,,0.00,Graphweather,2013-07-20 08:05:00,
2013-07-20 04:10:00,78.6,75.2,30.03,NE,45,3.6,5.4,90,0.00,,,0.00,Graphweather,2013-07-20 08:10:00,
2013-07-20 04:15:00,78.6,75.2,30.03,NNE,22,3.6,5.8,89,0.00,,,0.00,Graphweather,2013-07-20 08:15:00,
2013-07-20 04:20:00,78.8,75.2,30.03,SSE,157,3.6,5.6,88,0.00,,,0.00,Graphweather,2013-07-20 08:20:00,
2013-07-20 04:25:00,78.8,75.2,30.03,ESE,112,3.1,3.1,88,0.00,,,0.00,Graphweather,2013-07-20 08:25:00,
2013-07-20 04:30:00,78.8,75.2,30.03,SW,225,4.3,4.3,86,0.00,,,0.00,Graphweather,2013-07-20 08:30:00,
2013-07-20 04:35:00,78.8,75.2,30.03,South,180,3.4,4.3,87,0.00,,,0.00,Graphweather,2013-07-20 08:35:00,
2013-07-20 04:40:00,78.8,75.2,30.03,ESE,112,2.9,4.3,87,0.00,,,0.00,Graphweather,2013-07-20 08:40:00,
2013-07-20 04:45:00,78.6,75.2,30.03,SSE,157,2.5,3.4,87,0.00,,,0.00,Graphweather,2013-07-20 08:45:00,
2013-07-20 04:51:00,78.6,75.2,30.03,ESE,112,3.6,3.6,88,0.00,,,0.00,Graphweather,2013-07-20 08:51:00,
2013-07-20 04:56:00,78.6,75.2,30.03,ENE,67,3.1,7.2,87,0.00,,,0.00,Graphweather,2013-07-20 08:56:00,
2013-07-20 05:01:00,78.6,75.2,30.03,East,90,3.4,5.6,87,0.00,,,0.00,Graphweather,2013-07-20 09:01:00,
2013-07-20 05:06:00,78.6,75.2,30.03,ESE,112,3.6,4.0,88,0.00,,,0.00,Graphweather,2013-07-20 09:06:00,
2013-07-20 05:11:00,78.6,75.2,30.03,North,0,3.6,4.3,87,0.00,,,0.00,Graphweather,2013-07-20 09:11:00,
2013-07-20 05:16:00,78.6,75.2,30.03,SSE,157,2.5,3.4,87,0.00,,,0.00,Graphweather,2013-07-20 09:16:00,
2013-07-20 05:21:00,78.6,75.2,30.03,South,180,2.7,2.9,88,0.00,,,0.00,Graphweather,2013-07-20 09:21:00,
2013-07-20 05:26:00,78.8,75.2,30.03,East,90,2.5,3.1,88,0.00,,,0.00,Graphweather,2013-07-20 09:26:00,
2013-07-20 05:31:00,78.6,75.2,30.03,East,90,2.5,3.8,89,0.00,,,0.00,Graphweather,2013-07-20 09:31:00,
2013-07-20 05:36:00,78.8,75.2,30.06,SSE,157,3.1,5.8,89,0.00,,,0.00,Graphweather,2013-07-20 09:36:00,
2013-07-20 05:41:00,78.6,75.2,30.06,SW,225,3.1,3.6,89,0.00,,,0.00,Graphweather,2013-07-20 09:41:00,
2013-07-20 05:46:00,78.8,75.2,30.06,East,90,3.1,5.8,88,0.00,,,0.00,Graphweather,2013-07-20 09:46:00,
2013-07-20 05:51:00,78.8,75.2,30.06,NNW,337,3.1,3.8,89,0.00,,,0.00,Graphweather,2013-07-20 09:51:00,
2013-07-20 05:57:00,79.0,75.2,30.06,SE,135,1.6,2.0,89,0.00,,,0.00,Graphweather,2013-07-20 09:57:00,
2013-07-20 06:02:00,79.0,75.2,30.06,East,90,3.4,5.4,88,0.00,,,0.00,Graphweather,2013-07-20 10:02:00,
2013-07-20 06:07:00,79.2,75.2,30.06,ENE,67,2.7,4.3,88,0.00,,,0.00,Graphweather,2013-07-20 10:07:00,
2013-07-20 06:12:00,79.3,77.0,30.06,SE,135,2.5,3.8,89,0.00,,,0.00,Graphweather,2013-07-20 10:12:00,
2013-07-20 06:17:00,79.5,75.2,30.06,East,90,3.1,5.6,88,0.00,,,0.00,Graphweather,2013-07-20 10:17:00,
2013-07-20 06:22:00,79.9,77.0,30.06,ESE,112,3.4,5.6,87,0.00,,,0.00,Graphweather,2013-07-20 10:22:00,
2013-07-20 06:27:00,80.1,77.0,30.06,ESE,112,2.5,2.9,87,0.00,,,0.00,Graphweather,2013-07-20 10:27:00,
2013-07-20 06:32:00,80.2,77.0,30.06,SE,135,2.5,2.5,88,0.00,,,0.00,Graphweather,2013-07-20 10:32:00,
2013-07-20 06:37:00,81.0,77.0,30.06,East,90,2.9,3.1,87,0.00,,,0.00,Graphweather,2013-07-20 10:37:00,
2013-07-20 06:42:00,81.3,77.0,30.06,ENE,67,2.7,3.4,87,0.00,,,0.00,Graphweather,2013-07-20 10:42:00,
2013-07-20 06:47:00,81.3,77.0,30.06,East,90,2.0,4.0,88,0.00,,,0.00,Graphweather,2013-07-20 10:47:00,
2013-07-20 06:52:00,81.3,77.0,30.06,ESE,112,3.6,3.6,88,0.00,,,0.00,Graphweather,2013-07-20 10:52:00,
2013-07-20 06:58:00,81.7,78.8,30.06,NE,45,3.4,4.0,88,0.00,,,0.00,Graphweather,2013-07-20 10:58:00,
2013-07-20 07:03:00,82.0,78.8,30.06,NE,45,3.4,7.4,87,0.00,,,0.00,Graphweather,2013-07-20 11:03:00,
2013-07-20 07:08:00,83.1,78.8,30.03,East,90,3.1,3.4,87,0.00,,,0.00,Graphweather,2013-07-20 11:08:00,
2013-07-20 07:13:00,83.8,78.8,30.03,East,90,2.0,2.2,86,0.00,,,0.00,Graphweather,2013-07-20 11:13:00,
2013-07-20 07:18:00,83.8,78.8,30.03,NNE,22,2.9,2.9,85,0.00,,,0.00,Graphweather,2013-07-20 11:18:00,
2013-07-20 07:23:00,84.9,77.0,30.06,East,90,2.2,2.7,79,0.00,,,0.00,Graphweather,2013-07-20 11:23:00,
2013-07-20 07:28:00,84.7,77.0,30.06,ESE,112,4.0,5.6,78,0.00,,,0.00,Graphweather,2013-07-20 11:28:00,
2013-07-20 07:33:00,84.0,77.0,30.06,East,90,4.0,0.0,78,0.00,,,0.00,Graphweather,2013-07-20 11:33:00,
2013-07-20 07:38:00,84.4,77.0,30.06,SW,225,3.6,4.3,78,0.00,,,0.00,Graphweather,2013-07-20 11:38:00,
2013-07-20 07:43:00,84.9,77.0,30.06,East,90,3.8,3.8,79,0.00,,,0.00,Graphweather,2013-07-20 11:43:00,
2013-07-20 07:48:00,85.8,77.0,30.06,East,90,3.1,3.6,78,0.00,,,0.00,Graphweather,2013-07-20 11:48:00,
2013-07-20 07:53:00,86.4,78.8,30.03,East,90,2.5,2.9,77,0.00,,,0.00,Graphweather,2013-07-20 11:53:00,
2013-07-20 07:58:00,86.2,78.8,30.03,NE,45,3.4,3.4,77,0.00,,,0.00,Graphweather,2013-07-20 11:58:00,
2013-07-20 08:04:00,86.2,77.0,30.03,East,90,3.8,4.0,76,0.00,,,0.00,Graphweather,2013-07-20 12:04:00,
2013-07-20 08:09:00,87.1,78.8,30.06,South,180,2.9,2.9,76,0.00,,,0.00,Graphweather,2013-07-20 12:09:00,
2013-07-20 08:14:00,86.7,78.8,30.06,North,0,2.5,4.0,75,0.00,,,0.00,Graphweather,2013-07-20 12:14:00,
2013-07-20 08:19:00,86.9,78.8,30.06,ESE,112,4.5,4.9,75,0.00,,,0.00,Graphweather,2013-07-20 12:19:00,
2013-07-20 08:24:00,87.3,77.0,30.06,ESE,112,4.3,4.3,73,0.00,,,0.00,Graphweather,2013-07-20 12:24:00,
2013-07-20 08:29:00,88.3,78.8,30.06,SSE,157,3.6,3.6,72,0.00,,,0.00,Graphweather,2013-07-20 12:29:00,
2013-07-20 08:34:00,89.2,78.8,30.06,SSW,202,3.1,5.8,71,0.00,,,0.00,Graphweather,2013-07-20 12:34:00,
2013-07-20 08:39:00,89.4,78.8,30.06,SE,135,3.8,3.8,70,0.00,,,0.00,Graphweather,2013-07-20 12:39:00,
2013-07-20 08:44:00,89.6,78.8,30.06,North,0,3.4,4.9,68,0.00,,,0.00,Graphweather,2013-07-20 12:44:00,
2013-07-20 08:49:00,90.5,78.8,30.06,East,90,3.4,4.9,67,0.00,,,0.00,Graphweather,2013-07-20 12:49:00,
2013-07-20 08:54:00,90.0,77.0,30.06,East,90,5.8,5.8,66,0.00,,,0.00,Graphweather,2013-07-20 12:54:00,
2013-07-20 08:59:00,91.2,78.8,30.06,NE,45,4.3,4.3,65,0.00,,,0.00,Graphweather,2013-07-20 12:59:00,
2013-07-20 09:05:00,91.9,78.8,30.09,East,90,3.1,3.8,66,0.00,,,0.00,Graphweather,2013-07-20 13:05:00,
2013-07-20 09:10:00,91.4,78.8,30.09,North,0,3.4,3.4,65,0.00,,,0.00,Graphweather,2013-07-20 13:10:00,
2013-07-20 09:15:00,91.8,78.8,30.09,WSW,247,3.8,3.8,66,0.00,,,0.00,Graphweather,2013-07-20 13:15:00,
2013-07-20 09:20:00,91.8,78.8,30.09,ESE,112,3.4,3.4,66,0.00,,,0.00,Graphweather,2013-07-20 13:20:00,
2013-07-20 09:25:00,90.9,78.8,30.09,East,90,2.9,3.6,66,0.00,,,0.00,Graphweather,2013-07-20 13:25:00,
2013-07-20 09:30:00,90.1,78.8,30.09,NE,45,4.3,4.3,67,0.00,,,0.00,Graphweather,2013-07-20 13:30:00,
2013-07-20 09:35:00,89.1,77.0,30.09,ENE,67,4.0,4.0,69,0.00,,,0.00,Graphweather,2013-07-20 13:35:00,
2013-07-20 09:40:00,89.2,77.0,30.09,NNE,22,2.2,2.7,67,0.00,,,0.00,Graphweather,2013-07-20 13:40:00,
2013-07-20 09:45:00,88.7,78.8,30.09,SSE,157,4.0,4.0,70,0.00,,,0.00,Graphweather,2013-07-20 13:45:00,
2013-07-20 09:50:00,88.2,77.0,30.09,East,90,3.8,3.8,68,0.00,,,0.00,Graphweather,2013-07-20 13:50:00,
2013-07-20 09:55:00,88.9,77.0,30.09,East,90,2.2,4.0,69,0.00,,,0.00,Graphweather,2013-07-20 13:55:00,
2013-07-20 10:00:00,89.1,77.0,30.09,ESE,112,3.6,3.8,69,0.00,,,0.00,Graphweather,2013-07-20 14:00:00,
2013-07-20 10:06:00,88.0,77.0,30.09,ESE,112,3.4,4.3,70,0.00,,,0.00,Graphweather,2013-07-20 14:06:00,
2013-07-20 10:11:00,86.7,77.0,30.09,NE,45,3.6,4.0,74,0.00,,,0.00,Graphweather,2013-07-20 14:11:00,
2013-07-20 10:16:00,87.8,77.0,30.09,SSE,157,2.7,3.6,71,0.00,,,0.00,Graphweather,2013-07-20 14:16:00,
2013-07-20 10:21:00,86.5,78.8,30.09,SSE,157,4.9,6.0,76,0.00,,,0.00,Graphweather,2013-07-20 14:21:00,
2013-07-20 10:26:00,85.6,77.0,30.09,NE,45,3.6,4.9,77,0.00,,,0.00,Graphweather,2013-07-20 14:26:00,
2013-07-20 10:31:00,81.7,77.0,30.09,SSW,202,3.1,3.1,82,0.04,,,0.04,Graphweather,2013-07-20 14:31:00,
2013-07-20 10:36:00,80.6,77.0,30.09,ESE,112,2.9,3.1,88,0.04,,,0.04,Graphweather,2013-07-20 14:36:00,
2013-07-20 10:41:00,83.1,80.6,30.09,East,90,2.0,2.0,89,0.04,,,0.04,Graphweather,2013-07-20 14:41:00,
2013-07-20 10:46:00,85.6,80.6,30.09,SSE,157,2.2,2.7,88,0.04,,,0.04,Graphweather,2013-07-20 14:46:00,
2013-07-20 10:51:00,84.9,80.6,30.09,NNE,22,2.0,3.4,87,0.00,,,0.04,Graphweather,2013-07-20 14:51:00,
2013-07-20 10:56:00,86.7,82.4,30.09,ENE,67,3.4,3.4,86,0.00,,,0.04,Graphweather,2013-07-20 14:56:00,
2013-07-20 11:02:00,85.5,80.6,30.09,East,90,4.3,0.0,84,0.00,,,0.04,Graphweather,2013-07-20 15:02:00,
2013-07-20 11:07:00,83.8,78.8,30.06,ESE,112,3.6,3.8,84,0.00,,,0.04,Graphweather,2013-07-20 15:07:00,
2013-07-20 11:12:00,83.5,78.8,30.06,SSW,202,3.1,3.1,84,0.00,,,0.04,Graphweather,2013-07-20 15:12:00,
2013-07-20 11:17:00,83.8,78.8,30.06,SSW,202,3.6,3.6,85,0.00,,,0.04,Graphweather,2013-07-20 15:17:00,
2013-07-20 11:22:00,83.8,80.6,30.06,East,90,2.9,4.7,87,0.00,,,0.04,Graphweather,2013-07-20 15:22:00,
2013-07-20 11:27:00,82.4,78.8,30.06,East,90,2.5,2.5,90,0.04,,,0.08,Graphweather,2013-07-20 15:27:00,
2013-07-20 11:32:00,84.7,80.6,30.06,SSE,157,3.6,3.6,89,0.04,,,0.08,Graphweather,2013-07-20 15:32:00,
2013-07-20 11:37:00,86.4,82.4,30.06,East,90,2.2,4.7,88,0.04,,,0.08,Graphweather,2013-07-20 15:37:00,
2013-07-20 11:42:00,87.1,80.6,30.06,SSE,157,4.9,4.9,83,0.04,,,0.08,Graphweather,2013-07-20 15:42:00,
2013-07-20 11:48:00,87.4,80.6,30.06,ESE,112,3.4,5.8,80,0.04,,,0.08,Graphweather,2013-07-20 15:48:00,
2013-07-20 11:53:00,89.1,80.6,30.06,SE,135,3.1,3.1,78,0.00,,,0.08,Graphweather,2013-07-20 15:53:00,
2013-07-20 11:58:00,89.6,80.6,30.06,North,0,3.4,3.4,74,0.00,,,0.08,Graphweather,2013-07-20 15:58:00,
2013-07-20 12:03:00,90.9,80.6,30.06,SSE,157,3.1,4.0,70,0.00,,,0.08,Graphweather,2013-07-20 16:03:00,
2013-07-20 12:08:00,91.0,80.6,30.06,SE,135,2.7,3.1,70,0.00,,,0.08,Graphweather,2013-07-20 16:08:00,
2013-07-20 12:13:00,91.4,80.6,30.06,East,90,2.5,3.4,68,0.00,,,0.08,Graphweather,2013-07-20 16:13:00,
2013-07-20 12:19:00,92.1,80.6,30.06,SE,135,3.1,0.0,68,0.00,,,0.08,Graphweather,2013-07-20 16:19:00,
2013-07-20 12:24:00,92.7,78.8,30.03,East,90,3.1,3.1,66,0.00,,,0.08,Graphweather,2013-07-20 16:24:00,
2013-07-20 12:29:00,92.1,80.6,30.03,SSW,202,2.9,4.3,68,0.00,,,0.08,Graphweather,2013-07-20 16:29:00,
2013-07-20 12:34:00,92.8,78.8,30.03,SSW,202,4.0,5.4,66,0.00,,,0.08,Graphweather,2013-07-20 16:34:00,
2013-07-20 12:39:00,90.9,78.8,30.03,East,90,2.9,3.4,67,0.00,,,0.08,Graphweather,2013-07-20 16:39:00,
2013-07-20 12:44:00,90.1,78.8,30.03,ENE,67,4.3,7.2,68,0.00,,,0.08,Graphweather,2013-07-20 16:44:00,
2013-07-20 12:50:00,89.6,77.0,30.06,NE,45,5.4,0.0,66,0.00,,,0.08,Graphweather,2013-07-20 16:50:00,
2013-07-20 12:55:00,90.7,78.8,30.06,SE,135,3.4,6.5,66,0.00,,,0.08,Graphweather,2013-07-20 16:55:00,
2013-07-20 13:00:00,90.0,78.8,30.06,NNE,22,4.7,4.9,67,0.00,,,0.08,Graphweather,2013-07-20 17:00:00,
2013-07-20 13:05:00,90.0,78.8,30.03,East,90,4.5,4.9,67,0.00,,,0.08,Graphweather,2013-07-20 17:05:00,
2013-07-20 13:10:00,90.9,77.0,30.03,NE,45,3.6,4.0,64,0.00,,,0.08,Graphweather,2013-07-20 17:10:00,
2013-07-20 13:16:00,91.9,77.0,30.03,South,180,4.7,6.5,62,0.00,,,0.08,Graphweather,2013-07-20 17:16:00,
2013-07-20 13:21:00,91.2,78.8,30.06,South,180,5.4,6.5,65,0.00,,,0.08,Graphweather,2013-07-20 17:21:00,
2013-07-20 13:26:00,91.4,78.8,30.06,SE,135,4.0,4.3,65,0.00,,,0.08,Graphweather,2013-07-20 17:26:00,
2013-07-20 13:31:00,90.7,78.8,30.06,East,90,4.7,0.0,65,0.00,,,0.08,Graphweather,2013-07-20 17:31:00,
2013-07-20 13:36:00,91.2,78.8,30.06,ESE,112,4.7,5.8,64,0.00,,,0.08,Graphweather,2013-07-20 17:36:00,
2013-07-20 13:42:00,91.2,77.0,30.06,ENE,67,3.1,6.3,63,0.00,,,0.08,Graphweather,2013-07-20 17:42:00,
2013-07-20 13:47:00,91.6,78.8,30.06,South,180,3.6,3.6,64,0.00,,,0.08,Graphweather,2013-07-20 17:47:00,
2013-07-20 13:52:00,91.9,77.0,30.06,East,90,3.4,0.0,63,0.00,,,0.08,Graphweather,2013-07-20 17:52:00,
2013-07-20 13:57:00,91.4,78.8,30.06,East,90,4.0,4.0,64,0.00,,,0.08,Graphweather,2013-07-20 17:57:00,
2013-07-20 14:02:00,91.6,78.8,30.06,ESE,112,3.1,3.1,64,0.00,,,0.08,Graphweather,2013-07-20 18:02:00,
2013-07-20 14:07:00,90.1,77.0,30.06,North,0,5.4,5.4,65,0.00,,,0.08,Graphweather,2013-07-20 18:07:00,
2013-07-20 14:13:00,88.9,77.0,30.06,ENE,67,4.3,4.3,67,0.00,,,0.08,Graphweather,2013-07-20 18:13:00,
2013-07-20 14:18:00,90.7,78.8,30.06,North,0,3.8,4.9,65,0.00,,,0.08,Graphweather,2013-07-20 18:18:00,
2013-07-20 14:23:00,90.9,78.8,30.06,SE,135,3.8,4.9,65,0.00,,,0.08,Graphweather,2013-07-20 18:23:00,
2013-07-20 14:29:00,90.7,78.8,30.06,ENE,67,3.6,4.9,65,0.00,,,0.08,Graphweather,2013-07-20 18:29:00,
2013-07-20 14:39:00,90.1,77.0,30.06,East,90,4.5,4.5,66,0.00,,,0.08,Graphweather,2013-07-20 18:39:00,
2013-07-20 14:45:00,90.1,77.0,30.06,NNE,22,4.3,4.3,66,0.00,,,0.08,Graphweather,2013-07-20 18:45:00,
2013-07-20 14:51:00,91.0,78.8,30.03,ESE,112,3.8,6.3,65,0.00,,,0.08,Graphweather,2013-07-20 18:51:00,
2013-07-20 14:56:00,90.3,77.0,30.03,North,0,4.5,4.5,66,0.00,,,0.08,Graphweather,2013-07-20 18:56:00,
2013-07-20 15:02:00,88.9,77.0,30.03,SSW,202,3.6,6.0,67,0.00,,,0.08,Graphweather,2013-07-20 19:02:00,
2013-07-20 15:07:00,87.6,77.0,30.06,SE,135,3.8,6.3,69,0.00,,,0.08,Graphweather,2013-07-20 19:07:00,
2013-07-20 15:12:00,87.4,77.0,30.06,East,90,4.0,6.3,70,0.00,,,0.08,Graphweather,2013-07-20 19:12:00,
2013-07-20 15:24:00,86.4,78.8,30.06,East,90,4.0,5.6,75,0.00,,,0.08,Graphweather,2013-07-20 19:24:00,
2013-07-20 15:30:00,87.3,77.0,30.06,SSW,202,4.9,6.0,72,0.00,,,0.08,Graphweather,2013-07-20 19:30:00,
2013-07-20 15:36:00,88.0,78.8,30.03,ESE,112,2.7,8.9,72,0.00,,,0.08,Graphweather,2013-07-20 19:36:00,
2013-07-20 15:41:00,87.8,78.8,30.03,SSE,157,4.5,6.3,72,0.00,,,0.08,Graphweather,2013-07-20 19:41:00,
2013-07-20 15:46:00,87.3,77.0,30.03,ENE,67,4.9,6.9,72,0.00,,,0.08,Graphweather,2013-07-20 19:46:00,
2013-07-20 15:51:00,86.5,78.8,30.03,ENE,67,4.3,4.3,75,0.00,,,0.08,Graphweather,2013-07-20 19:51:00,
2013-07-20 15:57:00,86.4,78.8,30.03,SSE,157,3.6,4.9,76,0.00,,,0.08,Graphweather,2013-07-20 19:57:00,
2013-07-20 16:02:00,85.8,77.0,30.03,NNE,22,4.9,4.9,77,0.00,,,0.08,Graphweather,2013-07-20 20:02:00,
2013-07-20 16:08:00,85.6,77.0,30.03,SSE,157,4.5,4.5,75,0.00,,,0.08,Graphweather,2013-07-20 20:08:00,
2013-07-20 16:13:00,85.8,77.0,30.03,NNE,22,4.0,0.0,76,0.00,,,0.08,Graphweather,2013-07-20 20:13:00,
2013-07-20 16:18:00,84.6,77.0,30.03,NE,45,4.9,6.5,77,0.00,,,0.08,Graphweather,2013-07-20 20:18:00,
2013-07-20 16:24:00,83.8,77.0,30.03,SSW,202,2.5,6.0,78,0.00,,,0.08,Graphweather,2013-07-20 20:24:00,
2013-07-20 16:29:00,84.2,77.0,30.03,SE,135,5.8,6.0,76,0.00,,,0.08,Graphweather,2013-07-20 20:29:00,
2013-07-20 16:34:00,84.2,77.0,30.03,East,90,4.7,4.9,78,0.00,,,0.08,Graphweather,2013-07-20 20:34:00,
2013-07-20 16:40:00,84.4,77.0,30.03,NE,45,4.0,4.0,79,0.00,,,0.08,Graphweather,2013-07-20 20:40:00,
2013-07-20 16:54:00,83.7,77.0,30.03,SSE,157,4.5,4.5,81,0.00,,,0.08,Graphweather,2013-07-20 20:54:00,
2013-07-20 17:10:00,82.6,77.0,30.03,ENE,67,3.4,4.5,84,0.00,,,0.08,Graphweather,2013-07-20 21:10:00,
2013-07-20 17:17:00,82.4,77.0,30.03,NE,45,3.6,5.6,84,0.00,,,0.08,Graphweather,2013-07-20 21:17:00,
2013-07-20 17:22:00,82.0,77.0,30.03,ESE,112,4.5,4.5,83,0.00,,,0.08,Graphweather,2013-07-20 21:22:00,
2013-07-20 17:28:00,81.9,77.0,30.03,East,90,3.6,3.6,84,0.00,,,0.08,Graphweather,2013-07-20 21:28:00,
2013-07-20 17:33:00,81.7,77.0,30.03,North,0,3.8,4.7,83,0.00,,,0.08,Graphweather,2013-07-20 21:33:00,
2013-07-20 17:38:00,81.5,77.0,30.03,SE,135,2.9,2.9,84,0.00,,,0.08,Graphweather,2013-07-20 21:38:00,
2013-07-20 17:44:00,81.3,77.0,30.03,ENE,67,2.9,2.9,86,0.00,,,0.08,Graphweather,2013-07-20 21:44:00,
2013-07-20 17:50:00,81.3,77.0,30.03,SSE,157,4.0,4.0,87,0.00,,,0.08,Graphweather,2013-07-20 21:50:00,
2013-07-20 17:56:00,81.3,77.0,30.03,SE,135,4.0,4.0,87,0.00,,,0.08,Graphweather,2013-07-20 21:56:00,
2013-07-20 18:01:00,80.8,77.0,30.03,SSW,202,4.7,5.8,87,0.00,,,0.08,Graphweather,2013-07-20 22:01:00,
2013-07-20 18:06:00,80.8,77.0,30.03,NW,315,2.7,5.6,86,0.00,,,0.08,Graphweather,2013-07-20 22:06:00,
2013-07-20 18:12:00,80.6,75.2,30.03,SE,135,3.6,3.6,84,0.00,,,0.08,Graphweather,2013-07-20 22:12:00,
2013-07-20 18:24:00,80.6,75.2,30.03,South,180,4.5,8.1,83,0.00,,,0.08,Graphweather,2013-07-20 22:24:00,
2013-07-20 18:30:00,80.4,75.2,30.03,East,90,4.5,0.0,84,0.00,,,0.08,Graphweather,2013-07-20 22:30:00,
2013-07-20 18:39:00,80.2,75.2,30.03,South,180,4.0,8.1,85,0.00,,,0.08,Graphweather,2013-07-20 22:39:00,
2013-07-20 18:49:00,80.1,75.2,30.03,NE,45,3.8,4.7,86,0.00,,,0.08,Graphweather,2013-07-20 22:49:00,
2013-07-20 18:54:00,80.1,75.2,30.03,East,90,4.0,6.3,85,0.00,,,0.08,Graphweather,2013-07-20 22:54:00,
2013-07-20 19:00:00,80.1,75.2,30.03,SE,135,6.0,6.0,86,0.00,,,0.08,Graphweather,2013-07-20 23:00:00,
2013-07-20 19:06:00,80.1,75.2,30.03,SSW,202,5.4,5.4,86,0.00,,,0.08,Graphweather,2013-07-20 23:06:00,
2013-07-20 19:12:00,79.9,75.2,30.03,East,90,4.9,5.8,85,0.00,,,0.08,Graphweather,2013-07-20 23:12:00,
2013-07-20 19:18:00,80.1,75.2,30.03,East,90,4.5,4.5,85,0.00,,,0.08,Graphweather,2013-07-20 23:18:00,
2013-07-20 19:23:00,79.9,73.4,30.03,ESE,112,3.8,3.8,81,0.00,,,0.08,Graphweather,2013-07-20 23:23:00,
2013-07-20 19:29:00,79.9,75.2,30.03,South,180,4.0,8.7,82,0.00,,,0.08,Graphweather,2013-07-20 23:29:00,
2013-07-20 19:39:00,79.9,75.2,30.03,ESE,112,4.5,5.4,84,0.00,,,0.08,Graphweather,2013-07-20 23:39:00,
2013-07-20 19:50:00,79.7,75.2,30.06,SE,135,4.0,5.6,84,0.00,,,0.08,Graphweather,2013-07-20 23:50:00,
2013-07-20 20:02:00,79.7,75.2,30.06,ENE,67,3.6,3.6,85,0.00,,,0.08,Graphweather,2013-07-21 00:02:00,
2013-07-20 20:08:00,79.5,75.2,30.03,ENE,67,4.7,4.7,86,0.00,,,0.08,Graphweather,2013-07-21 00:08:00,
2013-07-20 20:13:00,79.7,75.2,30.03,ENE,67,4.3,6.3,85,0.00,,,0.08,Graphweather,2013-07-21 00:13:00,
2013-07-20 20:18:00,79.5,75.2,30.03,WNW,292,4.7,5.8,87,0.00,,,0.08,Graphweather,2013-07-21 00:18:00,
2013-07-20 20:23:00,79.7,75.2,30.06,ENE,67,3.8,3.8,86,0.00,,,0.08,Graphweather,2013-07-21 00:23:00,
2013-07-20 20:29:00,79.7,77.0,30.06,East,90,4.5,4.5,87,0.00,,,0.08,Graphweather,2013-07-21 00:29:00,
2013-07-20 20:34:00,79.7,77.0,30.06,SE,135,3.8,8.5,87,0.00,,,0.08,Graphweather,2013-07-21 00:34:00,
2013-07-20 20:39:00,79.7,75.2,30.06,East,90,3.4,5.4,86,0.00,,,0.08,Graphweather,2013-07-21 00:39:00,
2013-07-20 20:44:00,79.7,75.2,30.06,NE,45,4.7,4.7,83,0.00,,,0.08,Graphweather,2013-07-21 00:44:00,
2013-07-20 20:49:00,79.7,75.2,30.06,East,90,4.5,5.8,85,0.00,,,0.08,Graphweather,2013-07-21 00:49:00,
2013-07-20 20:56:00,79.5,75.2,30.06,East,90,4.0,4.3,85,0.00,,,0.08,Graphweather,2013-07-21 00:56:00,
2013-07-20 21:01:00,79.5,75.2,30.06,SSE,157,3.1,4.3,84,0.00,,,0.08,Graphweather,2013-07-21 01:01:00,
2013-07-20 21:07:00,79.5,75.2,30.06,SSE,157,5.4,7.4,85,0.00,,,0.08,Graphweather,2013-07-21 01:07:00,
2013-07-20 21:12:00,79.5,75.2,30.06,East,90,3.4,3.4,86,0.00,,,0.08,Graphweather,2013-07-21 01:12:00,
2013-07-20 21:18:00,79.5,75.2,30.06,East,90,3.4,3.8,88,0.00,,,0.08,Graphweather,2013-07-21 01:18:00,
2013-07-20 21:23:00,79.5,75.2,30.06,East,90,2.9,3.8,84,0.00,,,0.08,Graphweather,2013-07-21 01:23:00,
2013-07-20 21:29:00,79.5,73.4,30.06,ESE,112,4.9,6.3,81,0.00,,,0.08,Graphweather,2013-07-21 01:29:00,
2013-07-20 21:35:00,79.5,75.2,30.06,East,90,3.6,4.7,85,0.00,,,0.08,Graphweather,2013-07-21 01:35:00,
2013-07-20 21:40:00,79.5,75.2,30.06,East,90,4.5,5.8,86,0.00,,,0.08,Graphweather,2013-07-21 01:40:00,
2013-07-20 21:46:00,79.5,75.2,30.06,East,90,4.5,4.5,85,0.00,,,0.08,Graphweather,2013-07-21 01:46:00,
2013-07-20 21:51:00,79.3,75.2,30.09,East,90,2.9,4.0,84,0.00,,,0.08,Graphweather,2013-07-21 01:51:00,
2013-07-20 21:57:00,79.3,75.2,30.09,East,90,3.4,4.3,84,0.00,,,0.08,Graphweather,2013-07-21 01:57:00,
2013-07-20 22:03:00,79.3,73.4,30.09,SSE,157,4.9,4.9,83,0.00,,,0.08,Graphweather,2013-07-21 02:03:00,
2013-07-20 22:09:00,79.3,73.4,30.06,East,90,3.6,5.6,81,0.00,,,0.08,Graphweather,2013-07-21 02:09:00,
2013-07-20 22:14:00,79.3,73.4,30.06,WSW,247,3.6,3.8,81,0.00,,,0.08,Graphweather,2013-07-21 02:14:00,
2013-07-20 22:20:00,79.3,73.4,30.06,East,90,3.6,3.6,83,0.00,,,0.08,Graphweather,2013-07-21 02:20:00,
2013-07-20 22:25:00,79.3,75.2,30.06,East,90,3.4,3.6,84,0.00,,,0.08,Graphweather,2013-07-21 02:25:00,
2013-07-20 22:30:00,79.3,73.4,30.06,SSW,202,4.3,4.3,83,0.00,,,0.08,Graphweather,2013-07-21 02:30:00,
2013-07-20 22:35:00,79.3,73.4,30.03,East,90,4.5,6.0,82,0.00,,,0.08,Graphweather,2013-07-21 02:35:00,
2013-07-20 22:41:00,79.3,75.2,30.03,SSE,157,3.8,3.8,85,0.00,,,0.08,Graphweather,2013-07-21 02:41:00,
2013-07-20 22:46:00,79.3,75.2,30.03,East,90,5.4,5.4,84,0.00,,,0.08,Graphweather,2013-07-21 02:46:00,
2013-07-20 22:51:00,79.3,73.4,30.06,ENE,67,4.3,5.4,83,0.00,,,0.08,Graphweather,2013-07-21 02:51:00,
2013-07-20 22:57:00,79.5,73.4,30.06,ESE,112,4.3,4.3,83,0.00,,,0.08,Graphweather,2013-07-21 02:57:00,
2013-07-20 23:09:00,79.3,75.2,30.09,SSW,202,4.5,7.2,84,0.00,,,0.08,Graphweather,2013-07-21 03:09:00,
2013-07-20 23:14:00,79.5,75.2,30.09,East,90,4.0,6.0,85,0.00,,,0.08,Graphweather,2013-07-21 03:14:00,
2013-07-20 23:19:00,79.5,75.2,30.06,East,90,4.0,4.0,86,0.00,,,0.08,Graphweather,2013-07-21 03:19:00,
2013-07-20 23:25:00,79.5,75.2,30.06,South,180,5.4,5.8,86,0.00,,,0.08,Graphweather,2013-07-21 03:25:00,
2013-07-20 23:31:00,79.3,75.2,30.06,SE,135,4.3,4.3,87,0.00,,,0.08,Graphweather,2013-07-21 03:31:00,
2013-07-20 23:36:00,79.3,75.2,30.06,SSE,157,4.5,6.0,88,0.00,,,0.08,Graphweather,2013-07-21 03:36:00,
2013-07-20 23:42:00,79.3,75.2,30.06,ENE,67,4.7,4.7,88,0.00,,,0.08,Graphweather,2013-07-21 03:42:00,
2013-07-20 23:48:00,79.3,75.2,30.06,South,180,4.3,5.8,88,0.00,,,0.08,Graphweather,2013-07-21 03:48:00,
2013-07-20 23:53:00,79.2,75.2,30.06,NNE,22,3.6,6.0,86,0.00,,,0.08,Graphweather,2013-07-21 03:53:00,
2013-07-20 23:59:00,79.2,75.2,30.06,SE,135,4.0,9.6,86,0.00,,,0.08,Graphweather,2013-07-21 03:59:00,